sat.trackr.live / text

‹ back to catalog

STARLINK-35882

NORAD 67088 · 2025-298P

PAYLOAD ACTIVE UNKNOWN

§ Identity

Operator
Country
US
Launch date
2025-12-14
Launch site
AFWTR
Launch vehicle
Mass (kg)
RCS (m²)

Purposes: comms

External: N2YO · Heavens-Above · Gunter

§ Orbital elements

Epoch: 2026-05-25T04:49:22.683072Z

Period
96.11 min
Inclination
70.0006°
Eccentricity
0.0004628
Mean motion
14.98334391 rev/d
Perigee alt
568.8 km
Apogee alt
575.3 km
Semi-major
6,950.2 km
B*
1.5426e-4
RAAN
181.7146°
Arg perigee
264.5596°
Mean anomaly
95.5035°
Rev number
2,467

§ Raw data

STARLINK-358821 67088U 25298P   26145.20095698  .00001748  00000+0  15426-3 0  99922 67088  70.0006 181.7146 0004628 264.5596  95.5035 14.98334391 24670

JSON: /api/v1/satellites/67088 · /tle

For live sub-satellite position, see the globe view (requires WebGL).

§ Visibility from observer

Set your observer location to see the next 7 days of passes ≥ 10°. The values pass through the URL so the page stays shareable.

No JS? Fill the form by hand. The geolocation button needs JavaScript.